Miscellaneous Local Product
Issued by NWS North Platte, NE

Home | Current Version | Previous Version | Text Only | Print | Product List | Glossary On
Versions: 1 2 3 4 5 6 7 8 9 10 11 12 13 14 15 16 17 18 19 20 21 22 23 24 25 26 27 28 29 30 31 32 33 34 35 36 37 38 39 40 41 42 43 44 45 46 47 48 49 50
000
AXUS43 KLBF 282310
MISLBF


WESTERN AND NORTH CENTRAL NEBRASKA HOURLY WEATHER ROUNDUP
NATIONAL WEATHER SERVICE NORTH PLATTE NE
600 PM CDT WED JUN 28 2017

NOTE: "FAIR" INDICATES FEW OR NO CLOUDS BELOW 12,000 FEET WITH NO
SIGNIFICANT WEATHER AND/OR OBSTRUCTIONS TO VISIBILITY.

NOTE: STATIONS NOT REPORTING VARIABLES SUCH AS SKY/WEATHER OR
PRESSURE ARE PROVIDED BY RAWS AND APRS NETWORKS AND ARE NOT UNDER
NATIONAL WEATHER SERVICE QUALITY CONTROL.

...OBSERVATIONS IN AND NEAR THE EASTERN PANHANDLE OF NEBRASKA...

CITY           SKY/WX    TMP DP  RH WIND       PRES   REMARKS
PINE RIDGE     LGT RAIN  81  46  29 S12G20    29.76
GORDON         MOCLDY    80  46  30 W6        29.81R
CHADRON        MOSUNNY   83  41  22 SW9       29.72F
ALLIANCE       MOSUNNY   82  49  31 E7        29.76F
SIDNEY         MOSUNNY   80  49  33 E10       29.83F
CRESCENT LAKE    N/A     87  46  23 NE3G12      N/A
$$

...OBSERVATIONS IN NORTHERN NEBRASKA AND FAR SOUTHERN SOUTH DAKOTA...

CITY           SKY/WX    TMP DP  RH WIND       PRES   REMARKS
WINNER         FAIR      90  48  23 NW14      29.69F
VALENTINE      SUNNY     90  40  17 NW8G18    29.72F
THEDFORD       SUNNY     89  49  25 N10       29.75F
AINSWORTH      SUNNY     86  50  28 NW8       29.73F
O`NEILL        SUNNY     88  55  32 W9        29.70S
ORD            SUNNY     88  53  30 N12       29.69S
BROKEN BOW     SUNNY     90  52  27 N5        29.72F
VALENTINE NWR    N/A     85  51  30 N7G15       N/A
HALSEY           N/A     90  47  22 NW7G18      N/A
BUTTE            N/A     85  56  37 NW8G16      N/A
CHAMBERS         N/A     92  57  30 N3          N/A  HX  90
$$

...OBSERVATIONS IN SOUTHWEST NEBRASKA AND FAR NORTHEAST COLORADO...

CITY           SKY/WX    TMP DP  RH WIND       PRES   REMARKS
WRAY           FAIR      86  43  22 SE6       29.81R
IMPERIAL       SUNNY     90  38  16 VRB3      29.76F
OGALLALA       SUNNY     88  41  19 NE5       29.75F
NORTH PLATTE   SUNNY     90  47  22 W5        29.72F
MCCOOK         MOSUNNY   92  50  23 E8        29.72F
LEXINGTON      SUNNY     89  52  28 CALM      29.73F
STAPLETON        N/A     89  54  30 CALM        N/A
GOTHENBURG       N/A     91  49  23 CALM        N/A
CALLAWAY         N/A     90  58  33 W7          N/A
$$

...OBSERVATIONS IN CENTRAL LINCOLN COUNTY AREA...

CITY           SKY/WX    TMP DP  RH WIND       PRES   REMARKS
N.P. AIRPORT   SUNNY     90  47  22 W5        29.72F
N.P. DOWNTOWN    N/A     89  51  26 CALM        N/A
N.P. SOUTHEAST   N/A     91  49  23 CALM        N/A
N.P. HILLCREST   N/A     88  47  23 N3          N/A
$$

...SOME OBSERVATIONS FROM AROUND THE REGION...

CITY           SKY/WX    TMP DP  RH WIND       PRES   REMARKS
DENVER         PTSUNNY   88  32  13 SW9       29.84F
LIMON          PTSUNNY   88  38  17 SE20G28   29.86F
ASPEN          MOSUNNY   78  19  11 W9G18     30.04F
LARAMIE        MOSUNNY   78  25  14 NW21G32   29.95F
CASPER         MOSUNNY   78  30  17 NW31G39   29.81R
CHEYENNE       PTSUNNY   82  38  20 S8G18     29.89F
SCOTTSBLUFF    PTSUNNY   86  46  24 VRB6      29.74F
GRAND ISLAND   SUNNY     88  61  40 W3        29.71F
OMAHA          MOSUNNY   91  65  41 NW15      29.63R HX  93
SIOUX FALLS    MOSUNNY   84  63  49 NW15G23   29.62R
PIERRE         SUNNY     86  40  19 N13       29.66F
RAPID CITY     TSTM      78  47  33 SW8       29.75R
BISMARCK       MOSUNNY   82  44  26 N13       29.68F
KANSAS CITY    PTSUNNY   86  71  60 S22G32    29.72F HX  91
HILL CITY      SUNNY     93  60  33 E5        29.70F HX  93
WICHITA        MOSUNNY   93  65  39 S25G35    29.72F HX  95
DODGE CITY     SUNNY     96  60  30 S15G23    29.69F HX  96
OKLAHOMA CITY  MOSUNNY   89  65  44 S23G33    29.80F HX  91
DALLAS         MOSUNNY   90  69  50 SE15G22   29.84F HX  94
AMARILLO       SUNNY     96  47  18 S12       29.79F HX  92
$$




USA.gov is the U.S. government's official web portal to all federal, state and local government web resources and services.